World > North America > United States > Texas > Old Union

Hourly Old Union, TX Regional Weather

Feedback E-mail the Weather

Quick WX

Old Union, TX Weather Maps

°F °C°F °C
Old Union Weather Map
UTC Time: 8/19/2022, 11:53
Your Time:

Old Union, TX Regional Weather

Expires:202208191200;;309013
ASUS44 KFWD 191115
RWRTX 
NORTH TEXAS HOURLY WEATHER ROUNDUP
NATIONAL WEATHER SERVICE FORT WORTH TX
600 AM CDT FRI AUG 19 2022

NOTE: "FAIR" INDICATES FEW OR NO CLOUDS BELOW 12,000 FEET WITH NO
SIGNIFICANT WEATHER AND/OR OBSTRUCTIONS TO VISIBILITY.


TXZ143>147-156>162-174-175-191200-
CENTRAL TEXAS
  
CITY           SKY/WX    TMP DP  RH WIND       PRES   REMARKS
WACO           TSTM      74  72  93 W9        29.94S FOG              
WACO-MCGREGOR  LGT RAIN  75  72  90 NW6       29.95R                  
HILLSBORO      MOCLDY    74  74 100 CALM      29.94S                  
MEXIA          LGT RAIN  74  73  98 W3        29.93S                  
HEARNE         CLOUDY    76  73  91 CALM      29.95S                  
CAMERON        MOCLDY    75  73  95 CALM      29.93F                  
TEMPLE         FAIR      75  74  96 CALM      29.95R                  
KILLEEN        CLOUDY    74  70  88 CALM      29.91F                  
KILLEEN-SKYLRK MOCLDY    74  72  93 CALM      29.95S                  
FORT HOOD      CLOUDY    75  71  86 CALM      29.94S                  
GATESVILLE     FAIR      73  73 100 MISG      29.96S                  
HAMILTON       MOCLDY    76  67  72 W3        29.97F                  
LAMPASAS       MOCLDY    73  71  93 CALM      29.92S                  
$$


SKY/WX - Weather  TMP - Temperature  DP - Dew Point  RH - Humidity
WIND - Wind Direction/Speed PRES - Barometric Pressure VSB - Visibility
WCI - Wind Chill Index E13G22 Wind - East Wind 13 mph/Gusts of 22 mph

Trending Headlines

Old Union Radar Loop



Old Union Quick Facts


National Two Day Weather Forecast


E-mail the Old Union Weather Forecast

Voice your opinion or tell us about page issues...